DAL763 KORF-KDTW

Flight info

Callsign DAL763
Flight time 1h 45m
Altitude 36000
Route NUTIY1 KELLE MOL TARCI JAMOX BONZZ2
Aircraft B738/M-SDE2E3FGHIRWXY/LB1

Departure

Time 2026-04-24 09:31
Airport Norfolk International Airport (KORF)

Arrival

Time 2026-04-24 11:16
Airport Detroit Metropolitan Wayne County Airport (KDTW)
Time Latitude Longitude Altitude Speed Heading
2026-04-24 09:01 36.89714 -76.20185 8 ft 0 kts 216°
2026-04-24 09:22 36.89728 -76.20173 2 ft 4 kts 213°
2026-04-24 09:23 36.89750 -76.20156 2 ft 4 kts 206°
2026-04-24 09:23 36.89776 -76.20145 4 ft 4 kts 183°
2026-04-24 09:23 36.89795 -76.20150 2 ft 2 kts 121°
2026-04-24 09:23 36.89796 -76.20152 2 ft 1 kts 120°
2026-04-24 09:26 36.89795 -76.20149 2 ft 3 kts 119°
2026-04-24 09:26 36.89773 -76.20083 2 ft 12 kts 111°
2026-04-24 09:27 36.89755 -76.19957 2 ft 18 kts 73°
2026-04-24 09:27 36.89863 -76.19816 2 ft 28 kts 38°
2026-04-24 09:27 36.90001 -76.19676 2 ft 24 kts 36°
2026-04-24 09:27 36.90135 -76.19559 2 ft 24 kts 31°
2026-04-24 09:28 36.90285 -76.19449 2 ft 27 kts 36°
2026-04-24 09:28 36.90439 -76.19302 2 ft 28 kts 38°
2026-04-24 09:28 36.90578 -76.19173 1 ft 17 kts 35°
2026-04-24 09:28 36.90596 -76.19058 1 ft 10 kts 126°
2026-04-24 09:29 36.90589 -76.19045 0 ft 0 kts 126°
2026-04-24 09:29 36.90582 -76.19034 1 ft 7 kts 129°
2026-04-24 09:30 36.90509 -76.18982 -1 ft 12 kts 193°
2026-04-24 09:30 36.90479 -76.19005 0 ft 2 kts 216°
2026-04-24 09:30 36.90394 -76.19085 0 ft 51 kts 217°
2026-04-24 09:30 36.89892 -76.19571 2 ft 130 kts 217°
2026-04-24 09:31 36.89021 -76.20411 273 ft 173 kts 218°
2026-04-24 09:31 36.88096 -76.21294 1361 ft 170 kts 220°
2026-04-24 09:31 36.87194 -76.22415 1953 ft 192 kts 237°
2026-04-24 09:31 36.86704 -76.24045 2265 ft 213 kts 276°
2026-04-24 09:32 36.87239 -76.25731 2523 ft 225 kts 316°
2026-04-24 09:32 36.88540 -76.26920 2922 ft 234 kts 326°
2026-04-24 09:32 36.89788 -76.28221 3648 ft 236 kts 315°
2026-04-24 09:32 36.90888 -76.29783 4170 ft 247 kts 309°
2026-04-24 09:33 36.91923 -76.31569 4711 ft 259 kts 305°
2026-04-24 09:33 36.92912 -76.33454 5624 ft 258 kts 303°
2026-04-24 09:33 36.93875 -76.35364 6524 ft 261 kts 303°
2026-04-24 09:33 36.94601 -76.37447 7300 ft 267 kts 279°
2026-04-24 09:34 36.94654 -76.39776 8170 ft 269 kts 272°
2026-04-24 09:34 36.94633 -76.42127 9003 ft 272 kts 272°
2026-04-24 09:34 36.94611 -76.44506 9847 ft 274 kts 272°
2026-04-24 09:34 36.94593 -76.46908 10482 ft 284 kts 272°
2026-04-24 09:35 36.94578 -76.49449 10662 ft 308 kts 272°
2026-04-24 09:35 36.94563 -76.52272 10847 ft 332 kts 271°
2026-04-24 09:35 36.94584 -76.55205 11017 ft 352 kts 275°
2026-04-24 09:35 36.94959 -76.58279 11468 ft 360 kts 283°
2026-04-24 09:36 36.95485 -76.61359 12139 ft 364 kts 283°
2026-04-24 09:36 36.96016 -76.64461 12889 ft 365 kts 283°
2026-04-24 09:36 36.96536 -76.67587 13592 ft 369 kts 282°
2026-04-24 09:36 36.97046 -76.70744 14180 ft 373 kts 282°
2026-04-24 09:37 36.97555 -76.73947 14746 ft 377 kts 282°
2026-04-24 09:37 36.98065 -76.77183 15341 ft 381 kts 282°
2026-04-24 09:37 36.98673 -76.80425 15929 ft 384 kts 287°
2026-04-24 09:37 36.99427 -76.83642 16492 ft 388 kts 288°
2026-04-24 09:38 37.00230 -76.86875 17057 ft 391 kts 288°
2026-04-24 09:38 37.01043 -76.90145 17588 ft 395 kts 288°
2026-04-24 09:38 37.01853 -76.93460 18126 ft 399 kts 288°
2026-04-24 09:38 37.02658 -76.96804 18624 ft 403 kts 288°
2026-04-24 09:39 37.03452 -77.00134 19126 ft 405 kts 288°
2026-04-24 09:39 37.04256 -77.03527 19652 ft 407 kts 288°
2026-04-24 09:39 37.05058 -77.06931 20167 ft 409 kts 288°
2026-04-24 09:39 37.05764 -77.10400 20638 ft 413 kts 285°
2026-04-24 09:40 37.06397 -77.13920 21116 ft 416 kts 285°
2026-04-24 09:40 37.07006 -77.17467 21582 ft 418 kts 284°
2026-04-24 09:40 37.07618 -77.21047 22036 ft 421 kts 285°
2026-04-24 09:40 37.08236 -77.24634 22468 ft 423 kts 285°
2026-04-24 09:41 37.08867 -77.28251 22895 ft 426 kts 285°
2026-04-24 09:41 37.09507 -77.31891 23317 ft 428 kts 285°
2026-04-24 09:41 37.10150 -77.35541 23719 ft 431 kts 285°
2026-04-24 09:41 37.10799 -77.39217 24061 ft 433 kts 285°
2026-04-24 09:42 37.11450 -77.42909 24427 ft 434 kts 285°
2026-04-24 09:42 37.12100 -77.46603 24787 ft 436 kts 285°
2026-04-24 09:42 37.12753 -77.50324 25132 ft 437 kts 285°
2026-04-24 09:42 37.13398 -77.54004 25460 ft 439 kts 285°
2026-04-24 09:43 37.14055 -77.57763 25789 ft 441 kts 285°
2026-04-24 09:43 37.14711 -77.61525 26091 ft 443 kts 285°
2026-04-24 09:43 37.15369 -77.65308 26382 ft 445 kts 285°
2026-04-24 09:43 37.16029 -77.69100 26690 ft 447 kts 285°
2026-04-24 09:44 37.16690 -77.72913 26993 ft 448 kts 285°
2026-04-24 09:44 37.17374 -77.76739 27281 ft 449 kts 288°
2026-04-24 09:44 37.18401 -77.80419 27551 ft 447 kts 296°
2026-04-24 09:44 37.19820 -77.83883 27812 ft 446 kts 304°
2026-04-24 09:45 37.21582 -77.87074 28150 ft 445 kts 307°
2026-04-24 09:45 37.23384 -77.90216 28591 ft 442 kts 308°
2026-04-24 09:45 37.25182 -77.93348 29071 ft 440 kts 307°
2026-04-24 09:45 37.26955 -77.96452 29502 ft 438 kts 307°
2026-04-24 09:46 37.28725 -77.99571 29843 ft 438 kts 307°
2026-04-24 09:46 37.30486 -78.02690 30175 ft 438 kts 307°
2026-04-24 09:46 37.32222 -78.05780 30530 ft 436 kts 307°
2026-04-24 09:46 37.33966 -78.08890 30907 ft 434 kts 307°
2026-04-24 09:47 37.35701 -78.11992 31246 ft 433 kts 307°
2026-04-24 09:47 37.37436 -78.15097 31555 ft 433 kts 307°
2026-04-24 09:47 37.39161 -78.18186 31877 ft 432 kts 307°
2026-04-24 09:47 37.40886 -78.21278 32213 ft 430 kts 307°
2026-04-24 09:48 37.42605 -78.24361 32534 ft 429 kts 307°
2026-04-24 09:48 37.44317 -78.27434 32833 ft 429 kts 307°
2026-04-24 09:48 37.46027 -78.30506 33165 ft 428 kts 307°
2026-04-24 09:48 37.47731 -78.33571 33473 ft 426 kts 307°
2026-04-24 09:49 37.49429 -78.36628 33770 ft 426 kts 307°
2026-04-24 09:49 37.51128 -78.39690 34055 ft 425 kts 307°
2026-04-24 09:49 37.52820 -78.42741 34319 ft 424 kts 307°
2026-04-24 09:49 37.54505 -78.45782 34589 ft 423 kts 307°
2026-04-24 09:50 37.56181 -78.48810 34855 ft 421 kts 307°
2026-04-24 09:50 37.57856 -78.51840 35099 ft 421 kts 307°
2026-04-24 09:50 37.59529 -78.54868 35335 ft 420 kts 307°
2026-04-24 09:50 37.61192 -78.57880 35573 ft 419 kts 307°
2026-04-24 09:51 37.62835 -78.60859 35808 ft 418 kts 307°
2026-04-24 09:51 37.64488 -78.63860 36047 ft 417 kts 307°
2026-04-24 09:51 37.67818 -78.69911 36062 ft 420 kts 307°
2026-04-24 09:52 37.71140 -78.75960 36064 ft 417 kts 307°
2026-04-24 09:52 37.74428 -78.81959 36059 ft 414 kts 307°
2026-04-24 09:53 37.77694 -78.87928 36069 ft 412 kts 307°
2026-04-24 09:53 37.80942 -78.93873 36078 ft 411 kts 307°
2026-04-24 09:54 37.84193 -78.99835 36073 ft 411 kts 307°
2026-04-24 09:54 37.87444 -79.05807 36075 ft 413 kts 307°
2026-04-24 09:55 37.90230 -79.12153 36087 ft 419 kts 294°
2026-04-24 09:55 37.91745 -79.19352 36113 ft 425 kts 286°
2026-04-24 09:56 37.93019 -79.26687 36118 ft 427 kts 286°
2026-04-24 09:56 37.94309 -79.34050 36122 ft 429 kts 286°
2026-04-24 09:57 37.95616 -79.41428 36131 ft 429 kts 287°
2026-04-24 09:57 37.96929 -79.48818 36112 ft 429 kts 286°
2026-04-24 09:58 37.98238 -79.56207 36107 ft 429 kts 286°
2026-04-24 09:58 37.99538 -79.63577 36121 ft 428 kts 286°
2026-04-24 09:59 38.00830 -79.70929 36114 ft 427 kts 286°
2026-04-24 09:59 38.02114 -79.78266 36125 ft 425 kts 286°
2026-04-24 10:00 38.03391 -79.85591 36116 ft 424 kts 286°
2026-04-24 10:00 38.04653 -79.92856 36121 ft 424 kts 286°
2026-04-24 10:01 38.05918 -80.00165 36123 ft 424 kts 286°
2026-04-24 10:01 38.07181 -80.07490 36123 ft 425 kts 286°
2026-04-24 10:02 38.08439 -80.14821 36126 ft 425 kts 286°
2026-04-24 10:02 38.09694 -80.22162 36119 ft 425 kts 285°
2026-04-24 10:03 38.10947 -80.29521 36123 ft 426 kts 285°
2026-04-24 10:03 38.12196 -80.36881 36139 ft 427 kts 285°
2026-04-24 10:04 38.13434 -80.44215 36144 ft 428 kts 285°
2026-04-24 10:04 38.14679 -80.51613 36130 ft 429 kts 285°
2026-04-24 10:05 38.15923 -80.59033 36127 ft 429 kts 285°
2026-04-24 10:05 38.17163 -80.66470 36129 ft 430 kts 285°
2026-04-24 10:06 38.18809 -80.76380 36114 ft 430 kts 285°
2026-04-24 10:07 38.20239 -80.85035 36112 ft 430 kts 285°
2026-04-24 10:07 38.21264 -80.91269 36102 ft 430 kts 285°
2026-04-24 10:08 38.22484 -80.98709 36113 ft 429 kts 285°
2026-04-24 10:08 38.23696 -81.06134 36117 ft 429 kts 285°
2026-04-24 10:09 38.24903 -81.13565 36128 ft 429 kts 285°
2026-04-24 10:09 38.26108 -81.21006 36128 ft 429 kts 285°
2026-04-24 10:10 38.28162 -81.27977 36134 ft 419 kts 309°
2026-04-24 10:10 38.30145 -81.30606 36114 ft 417 kts 321°
2026-04-24 10:10 38.32546 -81.32662 36098 ft 417 kts 334°
2026-04-24 10:11 38.38052 -81.35023 36111 ft 419 kts 342°
2026-04-24 10:11 38.43671 -81.37051 36090 ft 420 kts 343°
2026-04-24 10:12 38.49303 -81.39114 36100 ft 421 kts 342°
2026-04-24 10:12 38.54939 -81.41232 36093 ft 422 kts 342°
2026-04-24 10:13 38.60580 -81.43377 36102 ft 423 kts 342°
2026-04-24 10:13 38.66228 -81.45533 36087 ft 423 kts 342°
2026-04-24 10:14 38.71873 -81.47691 36091 ft 423 kts 342°
2026-04-24 10:14 38.77503 -81.49846 36090 ft 422 kts 342°
2026-04-24 10:15 38.83096 -81.51990 36098 ft 421 kts 342°
2026-04-24 10:15 38.88714 -81.54147 36086 ft 421 kts 342°
2026-04-24 10:16 38.94313 -81.56300 36083 ft 419 kts 342°
2026-04-24 10:16 38.99900 -81.58452 36080 ft 419 kts 342°
2026-04-24 10:17 39.05483 -81.60607 36090 ft 418 kts 342°
2026-04-24 10:17 39.11018 -81.62746 36086 ft 417 kts 342°
2026-04-24 10:18 39.16580 -81.64899 36080 ft 417 kts 342°
2026-04-24 10:18 39.22142 -81.67056 36075 ft 417 kts 342°
2026-04-24 10:19 39.27698 -81.69214 36084 ft 417 kts 342°
2026-04-24 10:19 39.33270 -81.71383 36085 ft 418 kts 341°
2026-04-24 10:20 39.38818 -81.73545 36084 ft 419 kts 341°
2026-04-24 10:20 39.44411 -81.75728 36081 ft 420 kts 341°
2026-04-24 10:21 39.50005 -81.77916 36082 ft 420 kts 341°
2026-04-24 10:21 39.55607 -81.80110 36081 ft 420 kts 341°
2026-04-24 10:22 39.61206 -81.82307 36080 ft 420 kts 341°
2026-04-24 10:22 39.66809 -81.84509 36084 ft 420 kts 341°
2026-04-24 10:23 39.72437 -81.86545 36076 ft 421 kts 348°
2026-04-24 10:23 39.78222 -81.87588 36090 ft 422 kts 351°
2026-04-24 10:24 39.84038 -81.88547 36089 ft 421 kts 350°
2026-04-24 10:24 39.89853 -81.89549 36091 ft 421 kts 350°
2026-04-24 10:25 39.95658 -81.90580 36093 ft 420 kts 350°
2026-04-24 10:25 40.01446 -81.91618 36096 ft 420 kts 350°
2026-04-24 10:26 40.07237 -81.92659 36090 ft 419 kts 350°
2026-04-24 10:26 40.13021 -81.93700 36073 ft 419 kts 350°
2026-04-24 10:27 40.18760 -81.94735 36071 ft 419 kts 350°
2026-04-24 10:27 40.24532 -81.95777 36075 ft 418 kts 350°
2026-04-24 10:28 40.30300 -81.96820 36073 ft 418 kts 350°
2026-04-24 10:28 40.36066 -81.97864 36077 ft 418 kts 350°
2026-04-24 10:29 40.41838 -81.98912 36073 ft 418 kts 350°
2026-04-24 10:29 40.47610 -81.99961 36072 ft 418 kts 350°
2026-04-24 10:30 40.53379 -82.01012 36070 ft 419 kts 350°
2026-04-24 10:30 40.59033 -82.02544 36081 ft 417 kts 344°
2026-04-24 10:31 40.64653 -82.04542 36087 ft 417 kts 343°
2026-04-24 10:31 40.70270 -82.06522 36077 ft 418 kts 344°
2026-04-24 10:32 40.75894 -82.08458 36069 ft 418 kts 344°
2026-04-24 10:32 40.78724 -82.09428 35661 ft 424 kts 344°
2026-04-24 10:32 40.81584 -82.10407 35114 ft 423 kts 344°
2026-04-24 10:32 40.84431 -82.11383 34469 ft 423 kts 344°
2026-04-24 10:33 40.87245 -82.12349 33796 ft 424 kts 344°
2026-04-24 10:33 40.90099 -82.13330 33056 ft 425 kts 344°
2026-04-24 10:33 40.92968 -82.14316 32309 ft 425 kts 344°
2026-04-24 10:33 40.95835 -82.15303 31577 ft 427 kts 344°
2026-04-24 10:34 40.98712 -82.16293 30858 ft 427 kts 344°
2026-04-24 10:34 41.01578 -82.17279 30382 ft 423 kts 344°
2026-04-24 10:34 41.04412 -82.18255 29794 ft 419 kts 343°
2026-04-24 10:34 41.07226 -82.19226 29249 ft 415 kts 344°
2026-04-24 10:35 41.09999 -82.20184 28727 ft 410 kts 344°
2026-04-24 10:35 41.12749 -82.21135 28201 ft 406 kts 344°
2026-04-24 10:35 41.15468 -82.22076 27688 ft 401 kts 344°
2026-04-24 10:35 41.18154 -82.23006 27283 ft 395 kts 344°
2026-04-24 10:36 41.20767 -82.23912 27173 ft 382 kts 343°
2026-04-24 10:36 41.23197 -82.25180 26908 ft 372 kts 328°
2026-04-24 10:36 41.25281 -82.27190 26560 ft 368 kts 322°
2026-04-24 10:36 41.27307 -82.29340 26209 ft 376 kts 321°
2026-04-24 10:37 41.29369 -82.31549 25836 ft 384 kts 321°
2026-04-24 10:37 41.31435 -82.33756 25459 ft 386 kts 322°
2026-04-24 10:37 41.33529 -82.35978 25068 ft 384 kts 322°
2026-04-24 10:37 41.35621 -82.38188 24681 ft 382 kts 322°
2026-04-24 10:38 41.37703 -82.40380 24303 ft 380 kts 322°
2026-04-24 10:38 41.39775 -82.42560 23919 ft 379 kts 322°
2026-04-24 10:38 41.41843 -82.44736 23492 ft 378 kts 322°
2026-04-24 10:38 41.43901 -82.46904 23081 ft 376 kts 322°
2026-04-24 10:39 41.45947 -82.49059 22684 ft 373 kts 322°
2026-04-24 10:39 41.47980 -82.51204 22299 ft 371 kts 322°
2026-04-24 10:39 41.49997 -82.53333 21921 ft 369 kts 322°
2026-04-24 10:39 41.52000 -82.55450 21550 ft 367 kts 322°
2026-04-24 10:40 41.53996 -82.57560 21199 ft 365 kts 322°
2026-04-24 10:40 41.55958 -82.59636 20838 ft 364 kts 322°
2026-04-24 10:40 41.57961 -82.61758 20473 ft 362 kts 321°
2026-04-24 10:40 41.59934 -82.63849 20116 ft 361 kts 321°
2026-04-24 10:41 41.61899 -82.65935 19758 ft 361 kts 321°
2026-04-24 10:41 41.63843 -82.67999 19419 ft 360 kts 321°
2026-04-24 10:41 41.65800 -82.70078 19048 ft 359 kts 321°
2026-04-24 10:41 41.67752 -82.72155 18696 ft 358 kts 321°
2026-04-24 10:42 41.69699 -82.74228 18334 ft 357 kts 321°
2026-04-24 10:42 41.71642 -82.76297 17925 ft 356 kts 321°
2026-04-24 10:42 41.73577 -82.78359 17543 ft 354 kts 321°
2026-04-24 10:42 41.75467 -82.80452 17145 ft 352 kts 317°
2026-04-24 10:43 41.77165 -82.82803 16798 ft 350 kts 312°
2026-04-24 10:43 41.78772 -82.85238 16436 ft 348 kts 311°
2026-04-24 10:43 41.80367 -82.87675 16082 ft 345 kts 312°
2026-04-24 10:43 41.81932 -82.90034 15751 ft 343 kts 312°
2026-04-24 10:44 41.83549 -82.92435 15408 ft 341 kts 313°
2026-04-24 10:44 41.85142 -82.94778 15061 ft 339 kts 313°
2026-04-24 10:44 41.86709 -82.97077 14743 ft 337 kts 313°
2026-04-24 10:44 41.88290 -82.99398 14406 ft 336 kts 313°
2026-04-24 10:45 41.89858 -83.01714 14063 ft 334 kts 313°
2026-04-24 10:45 41.91414 -83.04021 13727 ft 333 kts 313°
2026-04-24 10:45 41.92965 -83.06324 13361 ft 332 kts 313°
2026-04-24 10:45 41.94511 -83.08621 13012 ft 330 kts 313°
2026-04-24 10:46 41.96047 -83.10903 12673 ft 329 kts 313°
2026-04-24 10:46 41.97576 -83.13178 12341 ft 327 kts 313°
2026-04-24 10:46 41.99102 -83.15450 12017 ft 326 kts 313°
2026-04-24 10:46 42.00614 -83.17700 11689 ft 322 kts 313°
2026-04-24 10:47 42.02103 -83.19920 11370 ft 317 kts 313°
2026-04-24 10:47 42.03571 -83.22108 11055 ft 313 kts 313°
2026-04-24 10:47 42.05023 -83.24249 10855 ft 305 kts 313°
2026-04-24 10:47 42.06446 -83.26317 10665 ft 298 kts 313°
2026-04-24 10:48 42.07837 -83.28338 10484 ft 291 kts 313°
2026-04-24 10:48 42.09147 -83.30367 10301 ft 284 kts 306°
2026-04-24 10:48 42.10171 -83.32571 10134 ft 278 kts 300°
2026-04-24 10:48 42.11124 -83.34843 9961 ft 272 kts 300°
2026-04-24 10:49 42.12030 -83.37010 9791 ft 266 kts 300°
2026-04-24 10:49 42.12943 -83.39164 9620 ft 264 kts 300°
2026-04-24 10:49 42.13865 -83.41302 9463 ft 264 kts 301°
2026-04-24 10:49 42.14796 -83.43445 9299 ft 265 kts 301°
2026-04-24 10:50 42.15731 -83.45590 9133 ft 266 kts 301°
2026-04-24 10:50 42.16667 -83.47734 8967 ft 267 kts 301°
2026-04-24 10:50 42.17698 -83.49812 8775 ft 268 kts 315°
2026-04-24 10:50 42.19259 -83.51105 8650 ft 265 kts 343°
2026-04-24 10:51 42.21072 -83.51309 8488 ft 260 kts
2026-04-24 10:51 42.22773 -83.50572 8335 ft 256 kts 25°
2026-04-24 10:51 42.24326 -83.49436 8182 ft 251 kts 27°
2026-04-24 10:51 42.25839 -83.48309 8029 ft 246 kts 27°
2026-04-24 10:52 42.27329 -83.47308 7906 ft 232 kts 19°
2026-04-24 10:52 42.28787 -83.46606 7815 ft 219 kts 16°
2026-04-24 10:52 42.30213 -83.45963 7739 ft 214 kts 16°
2026-04-24 10:52 42.31644 -83.45319 7703 ft 220 kts 16°
2026-04-24 10:53 42.33113 -83.44652 7635 ft 225 kts 17°
2026-04-24 10:53 42.34600 -83.43971 7541 ft 224 kts 17°
2026-04-24 10:53 42.36078 -83.43347 7445 ft 222 kts
2026-04-24 10:53 42.37596 -83.43064 7370 ft 219 kts
2026-04-24 10:54 42.39100 -83.42801 7291 ft 218 kts
2026-04-24 10:54 42.40099 -83.42623 7241 ft 218 kts
2026-04-24 10:54 42.41597 -83.42356 7166 ft 218 kts
2026-04-24 10:54 42.43104 -83.42086 7095 ft 218 kts
2026-04-24 10:55 42.44614 -83.41811 7019 ft 220 kts
2026-04-24 10:55 42.46016 -83.41012 6916 ft 224 kts 41°
2026-04-24 10:55 42.46753 -83.39193 6837 ft 225 kts 84°
2026-04-24 10:55 42.46428 -83.37165 6807 ft 226 kts 121°
2026-04-24 10:56 42.45612 -83.35309 6800 ft 233 kts 120°
2026-04-24 10:56 42.44811 -83.33414 6810 ft 231 kts 120°
2026-04-24 10:56 42.44016 -83.31523 6808 ft 230 kts 120°
2026-04-24 10:56 42.43209 -83.29657 6803 ft 230 kts 124°
2026-04-24 10:57 42.42168 -83.28031 6782 ft 228 kts 141°
2026-04-24 10:57 42.40837 -83.26905 6670 ft 227 kts 161°
2026-04-24 10:57 42.39313 -83.26478 6408 ft 220 kts 180°
2026-04-24 10:57 42.37816 -83.26629 6170 ft 211 kts 192°
2026-04-24 10:58 42.36430 -83.27032 6051 ft 199 kts 198°
2026-04-24 10:58 42.35134 -83.27662 6036 ft 200 kts 203°
2026-04-24 10:58 42.33853 -83.28395 6006 ft 192 kts 207°
2026-04-24 10:58 42.32704 -83.29186 6002 ft 185 kts 210°
2026-04-24 10:59 42.31570 -83.30019 6010 ft 185 kts 211°
2026-04-24 10:59 42.30468 -83.30833 6042 ft 179 kts 211°
2026-04-24 10:59 42.29400 -83.31623 5999 ft 171 kts 211°
2026-04-24 10:59 42.28333 -83.32413 5512 ft 182 kts 211°
2026-04-24 11:00 42.27201 -83.33248 4791 ft 189 kts 210°
2026-04-24 11:00 42.26049 -83.34099 4022 ft 190 kts 210°
2026-04-24 11:00 42.24898 -83.34949 3479 ft 182 kts 209°
2026-04-24 11:00 42.23851 -83.35724 3283 ft 164 kts 208°
2026-04-24 11:01 42.22863 -83.36462 3217 ft 163 kts 208°
2026-04-24 11:01 42.21990 -83.37423 3053 ft 166 kts 238°
2026-04-24 11:01 42.21552 -83.38954 3009 ft 189 kts 250°
2026-04-24 11:01 42.21137 -83.40617 3003 ft 187 kts 250°
2026-04-24 11:02 42.20680 -83.42442 2987 ft 215 kts 251°
2026-04-24 11:02 42.20232 -83.44339 2994 ft 211 kts 257°
2026-04-24 11:02 42.20327 -83.46249 3002 ft 209 kts 292°
2026-04-24 11:02 42.21244 -83.47745 2986 ft 212 kts 326°
2026-04-24 11:03 42.22550 -83.48713 3015 ft 216 kts 332°
2026-04-24 11:03 42.23903 -83.49636 3024 ft 219 kts 333°
2026-04-24 11:03 42.25272 -83.50566 3020 ft 220 kts 333°
2026-04-24 11:03 42.26629 -83.51485 3004 ft 216 kts 333°
2026-04-24 11:04 42.28049 -83.52023 3002 ft 214 kts
2026-04-24 11:04 42.29517 -83.51621 3031 ft 218 kts 14°
2026-04-24 11:04 42.31009 -83.51154 3021 ft 221 kts 13°
2026-04-24 11:04 42.32496 -83.50702 3005 ft 217 kts 13°
2026-04-24 11:05 42.33960 -83.50260 2989 ft 215 kts 13°
2026-04-24 11:05 42.35398 -83.49827 3011 ft 216 kts 13°
2026-04-24 11:05 42.36872 -83.49384 3018 ft 217 kts 13°
2026-04-24 11:05 42.38353 -83.48938 3011 ft 219 kts 13°
2026-04-24 11:06 42.39845 -83.48489 3006 ft 219 kts 13°
2026-04-24 11:06 42.41332 -83.48041 3002 ft 219 kts 13°
2026-04-24 11:06 42.42822 -83.47593 2998 ft 218 kts 13°
2026-04-24 11:06 42.44305 -83.47150 2998 ft 218 kts 13°
2026-04-24 11:07 42.46764 -83.45153 3007 ft 210 kts 68°
2026-04-24 11:07 42.47025 -83.43247 3025 ft 206 kts 91°
2026-04-24 11:07 42.46955 -83.41293 3019 ft 209 kts 97°
2026-04-24 11:08 42.46817 -83.39321 3017 ft 211 kts 97°
2026-04-24 11:08 42.46669 -83.37328 3007 ft 213 kts 97°
2026-04-24 11:08 42.46519 -83.35331 3010 ft 213 kts 97°
2026-04-24 11:08 42.46367 -83.33332 2995 ft 213 kts 97°
2026-04-24 11:09 42.46217 -83.31368 3000 ft 211 kts 97°
2026-04-24 11:09 42.46067 -83.29395 3002 ft 210 kts 97°
2026-04-24 11:09 42.45918 -83.27431 3004 ft 209 kts 97°
2026-04-24 11:09 42.45770 -83.25473 3005 ft 209 kts 97°
2026-04-24 11:10 42.45608 -83.23516 3003 ft 208 kts 103°
2026-04-24 11:10 42.44955 -83.21893 2988 ft 194 kts 146°
2026-04-24 11:10 42.43706 -83.21445 3004 ft 189 kts 192°
2026-04-24 11:10 42.42515 -83.22129 3044 ft 186 kts 205°
2026-04-24 11:11 42.41357 -83.22880 3015 ft 183 kts 205°
2026-04-24 11:11 42.40237 -83.23651 3013 ft 179 kts 207°
2026-04-24 11:11 42.39153 -83.24432 2977 ft 172 kts 207°
2026-04-24 11:11 42.38103 -83.25201 3013 ft 173 kts 208°
2026-04-24 11:12 42.37063 -83.25967 2979 ft 166 kts 208°
2026-04-24 11:12 42.36061 -83.26706 3018 ft 164 kts 208°
2026-04-24 11:12 42.35067 -83.27440 3025 ft 166 kts 208°
2026-04-24 11:12 42.34067 -83.28180 3033 ft 163 kts 208°
2026-04-24 11:13 42.33065 -83.28919 2966 ft 161 kts 208°
2026-04-24 11:13 42.32102 -83.29630 2769 ft 159 kts 207°
2026-04-24 11:13 42.31140 -83.30340 2554 ft 156 kts 207°
2026-04-24 11:13 42.30194 -83.31038 2356 ft 154 kts 207°
2026-04-24 11:14 42.29253 -83.31733 2153 ft 155 kts 206°
2026-04-24 11:14 42.28311 -83.32429 1949 ft 154 kts 206°
2026-04-24 11:14 42.27377 -83.33118 1740 ft 152 kts 206°
2026-04-24 11:14 42.26446 -83.33805 1528 ft 153 kts 206°
2026-04-24 11:15 42.25509 -83.34497 1327 ft 155 kts 207°
2026-04-24 11:15 42.24554 -83.35203 1111 ft 157 kts 207°
2026-04-24 11:15 42.23584 -83.35913 887 ft 160 kts 208°
2026-04-24 11:15 42.22610 -83.36640 683 ft 158 kts 207°
2026-04-24 11:16 42.21736 -83.37283 642 ft 123 kts 208°
2026-04-24 11:16 42.21172 -83.37695 646 ft 57 kts 208°
2026-04-24 11:16 42.20843 -83.37935 644 ft 52 kts 208°
2026-04-24 11:16 42.20606 -83.37974 646 ft 22 kts 155°
2026-04-24 11:17 42.20631 -83.37845 646 ft 16 kts 31°
2026-04-24 11:17 42.20648 -83.37832 646 ft 0 kts 29°
2026-04-24 11:18 42.20668 -83.37817 647 ft 10 kts 28°
2026-04-24 11:18 42.20768 -83.37747 648 ft 21 kts 27°
2026-04-24 11:18 42.20922 -83.37630 646 ft 30 kts 29°
2026-04-24 11:19 42.21043 -83.37469 646 ft 23 kts 100°
2026-04-24 11:19 42.20949 -83.37215 646 ft 37 kts 119°
2026-04-24 11:19 42.20821 -83.36892 646 ft 32 kts 115°
2026-04-24 11:19 42.20720 -83.36643 645 ft 20 kts 119°
2026-04-24 11:20 42.20636 -83.36566 645 ft 16 kts 189°
2026-04-24 11:20 42.20507 -83.36623 645 ft 18 kts 158°
2026-04-24 11:20 42.20430 -83.36486 645 ft 20 kts 122°
2026-04-24 11:20 42.20357 -83.36316 645 ft 19 kts 118°
2026-04-24 11:21 42.20332 -83.36254 645 ft 0 kts 118°